Location: Vaughan
(31.9146°N, 97.1736°W)
Time: 23:36:02
(UTC+00:00)

IRS-1D - Pass Details

Date: 10 December 2025
Orbit: 737 x 810 km, 98.8° (Epoch: 19 January)

Event Time Altitude Azimuth Distance (km) Brightness Sun altitude
Rises 11:12:45 0° 15° (NNE) 3,209 6.8 -25.9°
Reaches altitude 10° 11:15:02 10° 18° (NNE) 2,291 6.0 -25.5°
Maximum altitude 11:20:04 71° 102° (ESE) 813 3.7 -24.4°
Drops below altitude 10° 11:25:11 10° 187° (S) 2,326 6.1 -23.4°
Sets 11:27:31 0° 189° (S) 3,261 6.8 -22.9°
